Time,TemperatureF,DewpointF,PressureIn,WindDirection,WindDirectionDegrees,WindSpeedMPH,WindSpeedGustMPH,Humidity,HourlyPrecipIn,Conditions,Clouds,dailyrainin,SoftwareType,DateUTC
2013-04-09 00:05:00,58.8,35.0,29.62,NNW,328,0.0,-999.0,41,-99.99,,,0.00,weatherlink.com 1.10,2013-04-09 07:05:00,
2013-04-09 00:20:00,58.1,35.0,29.62,NNW,328,0.0,-999.0,43,-99.99,,,0.00,weatherlink.com 1.10,2013-04-09 07:20:00,
2013-04-09 00:35:00,57.7,34.0,29.62,NNW,328,0.0,-999.0,41,-99.99,,,0.00,weatherlink.com 1.10,2013-04-09 07:35:00,
2013-04-09 00:50:00,57.9,35.0,29.63,NNW,328,0.0,-999.0,42,-99.99,,,0.00,weatherlink.com 1.10,2013-04-09 07:50:00,
2013-04-09 01:05:00,58.6,31.0,29.63,West,279,4.0,-999.0,35,-99.99,,,0.00,weatherlink.com 1.10,2013-04-09 08:05:00,
2013-04-09 01:20:00,61.2,29.0,29.63,West,271,2.0,-999.0,30,-99.99,,,0.00,weatherlink.com 1.10,2013-04-09 08:20:00,
2013-04-09 01:35:00,61.6,28.0,29.63,WNW,288,4.0,-999.0,28,-99.99,,,0.00,weatherlink.com 1.10,2013-04-09 08:35:00,
2013-04-09 01:50:00,61.7,25.0,29.63,West,275,12.0,-999.0,25,-99.99,,,0.00,weatherlink.com 1.10,2013-04-09 08:50:00,
2013-04-09 02:05:00,61.5,25.0,29.64,WNW,292,8.0,-999.0,25,-99.99,,,0.00,weatherlink.com 1.10,2013-04-09 09:05:00,
2013-04-09 02:20:00,61.0,24.0,29.64,WNW,296,9.0,-999.0,24,-99.99,,,0.00,weatherlink.com 1.10,2013-04-09 09:20:00,
2013-04-09 02:35:00,60.6,23.0,29.64,WNW,302,8.0,-999.0,24,-99.99,,,0.00,weatherlink.com 1.10,2013-04-09 09:35:00,
2013-04-09 02:50:00,60.3,22.0,29.64,West,281,8.0,-999.0,23,-99.99,,,0.00,weatherlink.com 1.10,2013-04-09 09:50:00,
2013-04-09 03:06:00,60.2,22.0,29.64,WNW,295,10.0,-999.0,23,-99.99,,,0.00,weatherlink.com 1.10,2013-04-09 10:06:00,
2013-04-09 03:21:00,60.1,22.0,29.65,WNW,294,15.0,-999.0,23,-99.99,,,0.00,weatherlink.com 1.10,2013-04-09 10:21:00,
2013-04-09 03:36:00,59.9,22.0,29.65,West,261,12.0,-999.0,23,-99.99,,,0.00,weatherlink.com 1.10,2013-04-09 10:36:00,
2013-04-09 03:51:00,59.5,22.0,29.66,WNW,300,8.0,-999.0,24,-99.99,,,0.00,weatherlink.com 1.10,2013-04-09 10:51:00,
2013-04-09 04:06:00,59.2,22.0,29.67,WNW,301,12.0,-999.0,24,-99.99,,,0.00,weatherlink.com 1.10,2013-04-09 11:06:00,
2013-04-09 05:06:00,58.5,23.0,29.69,NW,308,12.0,-999.0,25,-99.99,,,0.00,weatherlink.com 1.10,2013-04-09 12:06:00,
2013-04-09 05:21:00,58.6,22.0,29.70,WNW,290,14.0,-999.0,24,-99.99,,,0.00,weatherlink.com 1.10,2013-04-09 12:21:00,
2013-04-09 05:36:00,58.5,23.0,29.71,NNW,330,6.0,-999.0,25,-99.99,,,0.00,weatherlink.com 1.10,2013-04-09 12:36:00,
2013-04-09 05:51:00,58.4,23.0,29.71,NW,319,6.0,-999.0,25,-99.99,,,0.00,weatherlink.com 1.10,2013-04-09 12:51:00,
2013-04-09 06:06:00,58.5,22.0,29.71,WNW,302,8.0,-999.0,24,-99.99,,,0.00,weatherlink.com 1.10,2013-04-09 13:06:00,
2013-04-09 06:21:00,58.4,23.0,29.72,WNW,288,7.0,-999.0,25,-99.99,,,0.00,weatherlink.com 1.10,2013-04-09 13:21:00,
2013-04-09 06:36:00,57.9,22.0,29.73,West,278,6.0,-999.0,25,-99.99,,,0.00,weatherlink.com 1.10,2013-04-09 13:36:00,
2013-04-09 06:51:00,57.3,22.0,29.74,WNW,287,3.0,-999.0,26,-99.99,,,0.00,weatherlink.com 1.10,2013-04-09 13:51:00,
2013-04-09 07:06:00,58.0,22.0,29.75,WNW,283,9.0,-999.0,25,-99.99,,,0.00,weatherlink.com 1.10,2013-04-09 14:06:00,
2013-04-09 07:21:00,58.2,22.0,29.76,NW,315,4.0,-999.0,25,-99.99,,,0.00,weatherlink.com 1.10,2013-04-09 14:21:00,
2013-04-09 07:36:00,58.2,21.0,29.77,NW,309,7.0,-999.0,24,-99.99,,,0.00,weatherlink.com 1.10,2013-04-09 14:36:00,
2013-04-09 07:51:00,59.4,22.0,29.77,WNW,286,6.0,-999.0,24,-99.99,,,0.00,weatherlink.com 1.10,2013-04-09 14:51:00,
2013-04-09 08:06:00,60.4,21.0,29.78,NW,306,3.0,-999.0,22,-99.99,,,0.00,weatherlink.com 1.10,2013-04-09 15:06:00,
2013-04-09 08:21:00,62.1,22.0,29.78,WNW,300,10.0,-999.0,21,-99.99,,,0.00,weatherlink.com 1.10,2013-04-09 15:21:00,
2013-04-09 08:36:00,62.1,22.0,29.78,WNW,294,10.0,-999.0,21,-99.99,,,0.00,weatherlink.com 1.10,2013-04-09 15:36:00,
2013-04-09 08:51:00,63.1,22.0,29.79,NW,305,7.0,-999.0,21,-99.99,,,0.00,weatherlink.com 1.10,2013-04-09 15:51:00,
2013-04-09 09:06:00,63.9,22.0,29.79,NNW,342,8.0,-999.0,20,-99.99,,,0.00,weatherlink.com 1.10,2013-04-09 16:06:00,
2013-04-09 09:22:00,64.2,22.0,29.79,NW,316,3.0,-999.0,20,-99.99,,,0.00,weatherlink.com 1.10,2013-04-09 16:22:00,
2013-04-09 09:37:00,65.6,22.0,29.80,NW,325,8.0,-999.0,19,-99.99,,,0.00,weatherlink.com 1.10,2013-04-09 16:37:00,
2013-04-09 09:52:00,66.0,22.0,29.80,North,350,8.0,-999.0,19,-99.99,,,0.00,weatherlink.com 1.10,2013-04-09 16:52:00,
2013-04-09 10:07:00,66.5,20.0,29.80,NNW,329,11.0,-999.0,17,-99.99,,,0.00,weatherlink.com 1.10,2013-04-09 17:07:00,
2013-04-09 10:22:00,66.8,22.0,29.81,WNW,298,10.0,-999.0,18,-99.99,,,0.00,weatherlink.com 1.10,2013-04-09 17:22:00,
2013-04-09 10:52:00,67.2,22.0,29.81,NNW,340,8.0,-999.0,18,-99.99,,,0.00,weatherlink.com 1.10,2013-04-09 17:52:00,
2013-04-09 11:07:00,67.6,22.0,29.81,NW,317,7.0,-999.0,18,-99.99,,,0.00,weatherlink.com 1.10,2013-04-09 18:07:00,
2013-04-09 11:22:00,69.1,21.0,29.82,WNW,302,9.0,-999.0,16,-99.99,,,0.00,weatherlink.com 1.10,2013-04-09 18:22:00,
2013-04-09 11:52:00,70.3,23.0,29.80,WNW,297,6.0,-999.0,17,-99.99,,,0.00,weatherlink.com 1.10,2013-04-09 18:52:00,
2013-04-09 12:07:00,70.0,22.0,29.80,WNW,292,24.0,-999.0,16,-99.99,,,0.00,weatherlink.com 1.10,2013-04-09 19:07:00,
2013-04-09 12:22:00,70.7,22.0,29.80,NNW,333,6.0,-999.0,16,-99.99,,,0.00,weatherlink.com 1.10,2013-04-09 19:22:00,
2013-04-09 12:37:00,71.5,21.0,29.80,NNW,342,12.0,-999.0,15,-99.99,,,0.00,weatherlink.com 1.10,2013-04-09 19:37:00,
2013-04-09 12:52:00,72.0,22.0,29.80,NNW,336,10.0,-999.0,15,-99.99,,,0.00,weatherlink.com 1.10,2013-04-09 19:52:00,
2013-04-09 13:07:00,72.6,22.0,29.80,NW,308,7.0,-999.0,15,-99.99,,,0.00,weatherlink.com 1.10,2013-04-09 20:07:00,
2013-04-09 13:22:00,72.5,22.0,29.79,WNW,290,3.0,-999.0,15,-99.99,,,0.00,weatherlink.com 1.10,2013-04-09 20:22:00,
2013-04-09 13:37:00,73.3,21.0,29.79,North,360,21.0,-999.0,14,-99.99,,,0.00,weatherlink.com 1.10,2013-04-09 20:37:00,
2013-04-09 13:52:00,73.4,21.0,29.79,NW,318,12.0,-999.0,14,-99.99,,,0.00,weatherlink.com 1.10,2013-04-09 20:52:00,
2013-04-09 14:07:00,73.4,21.0,29.79,North,355,9.0,-999.0,14,-99.99,,,0.00,weatherlink.com 1.10,2013-04-09 21:07:00,
2013-04-09 14:22:00,74.3,20.0,29.79,NW,319,5.0,-999.0,13,-99.99,,,0.00,weatherlink.com 1.10,2013-04-09 21:22:00,
2013-04-09 14:37:00,74.0,20.0,29.78,North,355,17.0,-999.0,13,-99.99,,,0.00,weatherlink.com 1.10,2013-04-09 21:37:00,
2013-04-09 14:52:00,74.4,20.0,29.79,NW,306,5.0,-999.0,13,-99.99,,,0.00,weatherlink.com 1.10,2013-04-09 21:52:00,
2013-04-09 15:07:00,75.0,21.0,29.78,NW,307,6.0,-999.0,13,-99.99,,,0.00,weatherlink.com 1.10,2013-04-09 22:07:00,
2013-04-09 15:22:00,74.2,20.0,29.78,NNW,347,12.0,-999.0,13,-99.99,,,0.00,weatherlink.com 1.10,2013-04-09 22:22:00,
2013-04-09 15:37:00,74.9,21.0,29.78,NNW,342,5.0,-999.0,13,-99.99,,,0.00,weatherlink.com 1.10,2013-04-09 22:37:00,
2013-04-09 15:52:00,74.9,21.0,29.78,NNE,28,11.0,-999.0,13,-99.99,,,0.00,weatherlink.com 1.10,2013-04-09 22:52:00,
2013-04-09 16:08:00,74.3,20.0,29.77,North,355,7.0,-999.0,13,-99.99,,,0.00,weatherlink.com 1.10,2013-04-09 23:08:00,
2013-04-09 16:22:00,74.9,21.0,29.78,NNW,341,12.0,-999.0,13,-99.99,,,0.00,weatherlink.com 1.10,2013-04-09 23:22:00,
2013-04-09 16:37:00,74.4,20.0,29.78,North,351,9.0,-999.0,13,-99.99,,,0.00,weatherlink.com 1.10,2013-04-09 23:37:00,
2013-04-09 16:53:00,74.0,20.0,29.78,North,11,6.0,-999.0,13,-99.99,,,0.00,weatherlink.com 1.10,2013-04-09 23:53:00,
2013-04-09 17:07:00,73.9,20.0,29.79,North,5,10.0,-999.0,13,-99.99,,,0.00,weatherlink.com 1.10,2013-04-10 00:07:00,
2013-04-09 17:23:00,73.5,21.0,29.79,NNW,338,13.0,-999.0,14,-99.99,,,0.00,weatherlink.com 1.10,2013-04-10 00:23:00,
2013-04-09 17:38:00,73.2,19.0,29.79,North,355,7.0,-999.0,13,-99.99,,,0.00,weatherlink.com 1.10,2013-04-10 00:38:00,
2013-04-09 17:52:00,73.4,20.0,29.79,NNW,338,3.0,-999.0,13,-99.99,,,0.00,weatherlink.com 1.10,2013-04-10 00:52:00,
2013-04-09 18:08:00,72.9,19.0,29.79,NNE,22,6.0,-999.0,13,-99.99,,,0.00,weatherlink.com 1.10,2013-04-10 01:08:00,
2013-04-09 18:22:00,72.2,19.0,29.79,North,360,7.0,-999.0,13,-99.99,,,0.00,weatherlink.com 1.10,2013-04-10 01:22:00,
2013-04-09 18:37:00,71.6,20.0,29.79,NNE,16,6.0,-999.0,14,-99.99,,,0.00,weatherlink.com 1.10,2013-04-10 01:37:00,
2013-04-09 18:53:00,70.9,19.0,29.80,NNE,16,5.0,-999.0,14,-99.99,,,0.00,weatherlink.com 1.10,2013-04-10 01:53:00,
2013-04-09 19:07:00,70.3,19.0,29.80,North,360,1.0,-999.0,14,-99.99,,,0.00,weatherlink.com 1.10,2013-04-10 02:07:00,
2013-04-09 19:23:00,69.4,20.0,29.81,North,355,1.0,-999.0,15,-99.99,,,0.00,weatherlink.com 1.10,2013-04-10 02:23:00,
2013-04-09 19:38:00,68.6,19.0,29.82,North,355,0.0,-999.0,15,-99.99,,,0.00,weatherlink.com 1.10,2013-04-10 02:38:00,
2013-04-09 19:52:00,67.6,20.0,29.83,North,355,0.0,-999.0,16,-99.99,,,0.00,weatherlink.com 1.10,2013-04-10 02:52:00,
2013-04-09 20:08:00,65.9,20.0,29.84,North,355,0.0,-999.0,17,-99.99,,,0.00,weatherlink.com 1.10,2013-04-10 03:08:00,
2013-04-09 20:23:00,64.0,19.0,29.85,North,355,0.0,-999.0,18,-99.99,,,0.00,weatherlink.com 1.10,2013-04-10 03:23:00,
2013-04-09 20:38:00,62.5,21.0,29.85,North,355,0.0,-999.0,20,-99.99,,,0.00,weatherlink.com 1.10,2013-04-10 03:38:00,
2013-04-09 20:53:00,61.3,20.0,29.86,North,355,0.0,-999.0,20,-99.99,,,0.00,weatherlink.com 1.10,2013-04-10 03:53:00,
2013-04-09 21:08:00,60.8,20.0,29.87,North,355,0.0,-999.0,21,-99.99,,,0.00,weatherlink.com 1.10,2013-04-10 04:08:00,
2013-04-09 21:23:00,59.8,21.0,29.88,North,355,0.0,-999.0,22,-99.99,,,0.00,weatherlink.com 1.10,2013-04-10 04:23:00,
2013-04-09 21:38:00,59.0,20.0,29.89,North,355,0.0,-999.0,22,-99.99,,,0.00,weatherlink.com 1.10,2013-04-10 04:38:00,
2013-04-09 21:53:00,63.7,21.0,29.90,North,5,4.0,-999.0,19,-99.99,,,0.00,weatherlink.com 1.10,2013-04-10 04:53:00,
2013-04-09 22:08:00,63.6,20.0,29.91,North,5,1.0,-999.0,19,-99.99,,,0.00,weatherlink.com 1.10,2013-04-10 05:08:00,
2013-04-09 22:23:00,62.9,21.0,29.92,North,5,6.0,-999.0,20,-99.99,,,0.00,weatherlink.com 1.10,2013-04-10 05:23:00,
2013-04-09 22:53:00,62.5,21.0,29.94,North,355,3.0,-999.0,20,-99.99,,,0.00,weatherlink.com 1.10,2013-04-10 05:53:00,
2013-04-09 23:08:00,61.2,21.0,29.95,North,355,0.0,-999.0,21,-99.99,,,0.00,weatherlink.com 1.10,2013-04-10 06:08:00,
2013-04-09 23:23:00,61.0,21.0,29.95,North,351,0.0,-999.0,21,-99.99,,,0.00,weatherlink.com 1.10,2013-04-10 06:23:00,
2013-04-09 23:38:00,60.5,20.0,29.95,NNW,344,0.0,-999.0,21,-99.99,,,0.00,weatherlink.com 1.10,2013-04-10 06:38:00,
2013-04-09 23:53:00,61.2,21.0,29.95,NNW,342,0.0,-999.0,21,-99.99,,,0.00,weatherlink.com 1.10,2013-04-10 06:53:00,